sat.trackr.live / text

‹ back to catalog

CUAVA-2

NORAD 60527 · 2024-149BM

PAYLOAD ACTIVE UNKNOWN

§ Identity

Operator
Country
AUS
Launch date
2024-08-16
Launch site
AFWTR
Launch vehicle
Mass (kg)
RCS (m²)

External: N2YO · Heavens-Above · Gunter

§ Orbital elements

Epoch: 2026-05-25T03:34:45.302880Z

Period
93.78 min
Inclination
97.3724°
Eccentricity
0.0006924
Mean motion
15.35508737 rev/d
Perigee alt
454.7 km
Apogee alt
464.1 km
Semi-major
6,837.5 km
B*
3.5089e-4
RAAN
226.6396°
Arg perigee
29.0367°
Mean anomaly
331.1260°
Rev number
9,863

§ Raw data

CUAVA-21 60527U 24149BM  26145.14913545  .00012041  00000+0  35089-3 0  99952 60527  97.3724 226.6396 0006924  29.0367 331.1260 15.35508737 98632

JSON: /api/v1/satellites/60527 · /tle

For live sub-satellite position, see the globe view (requires WebGL).

§ Visibility from observer

Set your observer location to see the next 7 days of passes ≥ 10°. The values pass through the URL so the page stays shareable.

No JS? Fill the form by hand. The geolocation button needs JavaScript.

§ Radio — SatNOGS DB

ModeDescriptionDownlinkUplink
BPSK Mode U - BPSK1k2 400.650 MHz
QPSK Mode S - Downlink (inactive) 2.259 GHz

2 transmitters · refreshed weekly from db.satnogs.org